sat.trackr.live / text

‹ back to catalog

METEOR-M 2

NORAD 40069 · 2014-037A

PAYLOAD ACTIVE UNKNOWN

§ Identity

Operator
Country
CIS
Launch date
2014-07-08
Launch site
TYMSC
Launch vehicle
Mass (kg)
RCS (m²)
8.66

Purposes: earth_obs

External: N2YO · Heavens-Above · Gunter

§ Orbital elements

Epoch: 2026-09-20T04:06:47.309760Z

Period
101.30 min
Inclination
98.5244°
Eccentricity
0.0006769
Mean motion
14.21485089 rev/d
Perigee alt
815.5 km
Apogee alt
825.2 km
Semi-major
7,198.5 km
B*
7.5309e-5
RAAN
235.5994°
Arg perigee
114.3646°
Mean anomaly
245.8239°
Rev number
63,281

§ Raw data

METEOR-M 21 40069U 14037A   26263.17138090  .00000123  00000+0  75309-4 0  99952 40069  98.5244 235.5994 0006769 114.3646 245.8239 14.21485089632818

JSON: /api/v1/satellites/40069 · /tle

For live sub-satellite position, see the globe view (requires WebGL).

§ Visibility from observer

Set your observer location to see the next 7 days of passes ≥ 10°. The values pass through the URL so the page stays shareable.

No JS? Fill the form by hand. The geolocation button needs JavaScript.

§ Radio — SatNOGS DB

ModeDescriptionDownlinkUplink
HRPT HRPT 1.700 GHz
LRPT LRPT 1 137.100 MHz
LRPT LRPT 2 (inactive) 137.900 MHz

3 transmitters · refreshed weekly from db.satnogs.org